FW8630 Weather Reports


time (UTC)temp
C
wind
direction
speed
KPH
gust
KPH
rain 1hr
cm
rain 24hr
cm
rain mn
cm
humidity
%
barometer
mb
20260831170008 17 215 4.8 14.5 0.00 0.08 0.00 94 1010.6
20260831164504 17 198 4.8 16.1 0.00 0.08 0.00 93 1010.6
20260831163003 17 165 4.8 12.9 0.00 0.08 0.00 93 1010.6
20260831161506 17 184 6.4 16.1 0.00 0.08 0.00 92 1010.4
20260831160008 17 180 9.7 17.7 0.00 0.08 0.00 92 1010.7
20260831154502 17 205 4.8 20.9 0.00 0.08 0.00 92 1010.6
20260831153100 17 196 4.8 17.7 0.00 0.08 0.00 93 1010.8
20260831151600 17 197 8.0 17.7 0.00 0.08 0.00 92 1011.0
20260831150059 17 177 4.8 19.3 0.00 0.08 0.00 92 1011.0
20260831144605 17 187 6.4 24.1 0.00 0.08 0.00 92 1011.0
20260831143106 17 190 8.0 17.7 0.00 0.08 0.00 92 1011.1
20260831141557 17 194 8.0 20.9 0.00 0.08 0.00 91 1011.1
20260831140056 17 198 3.2 20.9 0.00 0.08 0.00 90 1011.0
20260831134556 17 226 9.7 19.3 0.00 0.08 0.00 91 1011.0
20260831133054 17 204 8.0 16.1 0.00 0.08 0.00 91 1010.9
20260831131556 17 185 3.2 12.9 0.00 0.08 0.00 92 1010.9
20260831130110 17 194 11.3 27.4 0.00 0.08 0.00 91 1011.0
20260831124553 17 184 6.4 17.7 0.00 0.08 0.00 90 1010.8
20260831123052 17 225 4.8 17.7 0.00 0.08 0.00 90 1010.7
20260831121552 18 192 8.0 20.9 0.00 0.08 0.00 89 1010.5
20260831120050 18 245 4.8 22.5 0.00 0.08 0.00 91 1010.6
20260831114550 17 214 6.4 19.3 0.00 0.08 0.00 90 1010.9
20260831113049 17 227 4.8 11.3 0.00 0.08 0.00 90 1011.0
20260831111548 17 242 4.8 12.9 0.00 0.08 0.00 89 1011.1
20260831110048 18 220 6.4 12.9 0.00 0.08 0.00 87 1011.1
20260831104548 17 229 4.8 11.3 0.00 0.08 0.00 88 1011.1
20260831103045 17 224 6.4 16.1 0.00 0.08 0.00 89 1011.1
20260831101543 18 169 8.0 14.5 0.00 0.08 0.00 89 1011.0
20260831100041 17 228 4.8 14.5 0.00 0.08 0.00 89 1011.0
20260831094540 17 245 6.4 14.5 0.00 0.08 0.00 89 1010.9
20260831093037 17 198 4.8 14.5 0.00 0.08 0.00 88 1010.9
20260831091535 17 219 4.8 9.7 0.00 0.08 0.00 89 1010.8
20260831090034 17 228 6.4 14.5 0.00 0.08 0.00 88 1010.7
20260831084532 17 227 4.8 16.1 0.00 0.08 0.00 90 1010.5
20260831083038 16 248 4.8 11.3 0.00 0.08 0.00 91 1010.5
20260831081529 16 244 6.4 14.5 0.00 0.08 0.00 91 1010.5
20260831080028 16 251 4.8 14.5 0.00 0.08 0.00 91 1010.4
20260831074527 16 238 4.8 16.1 0.00 0.08 0.00 90 1010.3
20260831073026 16 247 4.8 12.9 0.00 0.08 0.00 90 1010.4
20260831071524 16 248 4.8 14.5 0.00 0.08 0.00 89 1010.4
20260831070026 16 229 4.8 14.5 0.00 0.08 0.00 89 1010.0
20260831064522 16 245 6.4 14.5 0.00 0.08 0.00 90 1009.9
20260831063020 16 233 6.4 17.7 0.00 0.08 0.00 89 1009.8
20260831061519 16 223 6.4 19.3 0.00 0.08 0.00 91 1009.7
20260831060017 16 257 6.4 17.7 0.00 0.08 0.00 91 1009.4
20260831054516 16 243 8.0 20.9 0.00 0.08 0.00 91 1009.3
20260831053014 16 248 6.4 14.5 0.00 0.08 0.00 92 1009.4
20260831051512 16 234 6.4 17.7 0.00 0.08 0.00 91 1009.4
20260831050009 16 234 6.4 17.7 0.00 0.08 0.00 89 1009.0
20260831044507 16 240 8.0 17.7 0.00 0.08 0.00 89 1009.1
20260831043003 16 257 6.4 17.7 0.00 0.08 0.00 89 1008.9
20260831041502 16 249 6.4 22.5 0.00 0.08 0.00 89 1008.9
20260831040058 16 220 9.7 19.3 0.00 0.08 0.00 89 1008.6
20260831034555 16 240 8.0 14.5 0.00 0.08 0.00 89 1008.4
20260831033053 16 263 6.4 20.9 0.00 0.08 0.00 89 1008.2
20260831031552 16 219 4.8 27.4 0.00 0.08 0.00 89 1008.0
20260831030055 16 243 4.8 25.7 0.00 0.08 0.00 89 1008.0
20260831024607 16 236 9.7 22.5 0.00 0.08 0.00 89 1007.8
20260831023046 16 221 8.0 25.7 0.00 0.08 0.00 89 1007.7
20260831021551 16 236 8.0 25.7 0.00 0.08 0.00 89 1007.5
20260831020044 17 243 8.0 24.1 0.00 0.08 0.00 89 1007.3
20260831014541 17 251 9.7 20.9 0.00 0.08 0.00 89 1007.2
20260831013040 17 219 8.0 24.1 0.00 0.08 0.00 89 1007.1
20260831011550 17 171 8.0 17.7 0.00 0.08 0.00 88 1007.0
20260831003037 17 228 11.3 22.5 0.00 0.08 0.00 86 1006.7
20260830234523 17 203 6.4 11.3 0.00 0.08 0.00 89 1006.5
20260830233024 17 201 6.4 12.9 0.00 0.08 0.00 89 1006.4
20260830231520 17 205 4.8 12.9 0.00 0.08 0.00 89 1006.3
20260830230019 17 221 6.4 16.1 0.00 0.08 0.00 89 1006.2
20260830224522 17 191 6.4 17.7 0.00 0.08 0.00 89 1006.1
20260830223016 17 180 8.0 17.7 0.00 0.08 0.00 89 1006.2
20260830221515 17 223 6.4 25.7 0.00 0.08 0.00 89 1006.1
20260830220015 17 202 9.7 22.5 0.00 0.08 0.08 89 1006.1
20260830214612 17 198 9.7 29.0 0.00 0.08 0.08 89 1006.2
20260830213010 17 178 11.3 32.2 0.00 0.08 0.08 89 1006.2
20260830211510 17 202 8.0 24.1 0.00 0.08 0.08 89 1006.2
20260830210008 17 184 11.3 29.0 0.00 0.08 0.08 89 1006.2
20260830204506 17 169 14.5 37.0 0.00 0.08 0.08 89 1006.3
20260830203004 17 211 12.9 37.0 0.00 0.08 0.08 89 1006.4
20260830201506 17 223 9.7 25.7 0.00 0.08 0.08 89 1006.5
20260830200003 17 167 12.9 24.1 0.00 0.08 0.08 89 1006.5
20260830194502 17 163 9.7 27.4 0.00 0.08 0.08 89 1006.5
20260830193105 17 198 9.7 22.5 0.00 0.08 0.08 89 1006.5
20260830191559 17 207 9.7 22.5 0.00 0.08 0.08 89 1006.6
20260830190055 17 195 9.7 24.1 0.00 0.08 0.08 88 1006.6
20260830184605 17 193 9.7 20.9 0.05 0.08 0.08 88 1006.9
20260830183100 17 210 6.4 24.1 0.08 0.08 0.08 88 1007.0
20260830181551 17 190 8.0 20.9 0.08 0.08 0.08 88 1007.1
20260830180049 17 167 8.0 20.9 0.08 0.08 0.08 89 1007.0
20260830174547 17 163 4.8 19.3 0.05 0.05 0.05 91 1007.2
20260830173046 17 155 9.7 22.5 0.00 0.00 0.00 93 1007.3
20260830171551 17 192 9.7 24.1 0.00 0.00 0.00 92 1007.3